Location: Unspecified
(0.0000°N, 0.0000°E)
Time: 12:04:05
(UTC+00:00)

DMSP B5D2-3 - Pass Details

Date: 26 October 2019
Orbit: 821 x 839 km, 98.7° (Epoch: 21 November)

Event Time Altitude Azimuth Distance (km) Brightness Sun altitude
Rises 18:46:48 0° 349° (N) 3,370 8.3 -15.3°
Reaches altitude 10° 18:49:34 10° 336° (NNW) 2,437 7.7 -16.0°
Maximum altitude 18:53:50 24° 283° (WNW) 1,653 7.5 -17.0°
Drops below altitude 10° 18:58:06 10° 230° (SW) 2,436 8.6 -18.1°
Sets 19:00:53 0° 217° (SW) 3,369 9.1 -18.8°
